Time,TemperatureF,DewpointF,PressureIn,WindDirection,WindDirectionDegrees,WindSpeedMPH,WindSpeedGustMPH,Humidity,HourlyPrecipIn,Conditions,Clouds,dailyrainin,SoftwareType,DateUTC
2013-01-11 00:00:00,35.4,34.9,28.73,ESE,112,0.0,0.0,98,0.00,,---,0.00,VWS V14.01,2013-01-11 06:00:00,
2013-01-11 00:05:00,35.4,34.9,28.73,ESE,112,0.0,0.0,98,0.00,,---,0.00,VWS V14.01,2013-01-11 06:05:00,
2013-01-11 00:10:00,35.6,35.1,28.73,ESE,112,0.0,0.0,98,0.00,,---,0.00,VWS V14.01,2013-01-11 06:10:00,
2013-01-11 00:15:00,35.6,35.1,28.73,ESE,112,0.0,0.0,98,0.00,,---,0.00,VWS V14.01,2013-01-11 06:15:00,
2013-01-11 00:20:00,35.4,34.9,28.73,ESE,112,0.0,0.0,98,0.00,,---,0.00,VWS V14.01,2013-01-11 06:20:00,
2013-01-11 00:25:00,35.4,34.9,28.73,ESE,112,0.0,0.0,98,0.00,,---,0.00,VWS V14.01,2013-01-11 06:25:00,
2013-01-11 00:30:00,35.6,35.1,28.76,ESE,112,0.0,0.0,98,0.00,,---,0.00,VWS V14.01,2013-01-11 06:30:00,
2013-01-11 00:35:00,35.6,35.1,28.76,ESE,112,0.0,0.0,98,0.00,,---,0.00,VWS V14.01,2013-01-11 06:35:00,
2013-01-11 00:40:00,35.6,35.1,28.76,ESE,112,0.0,0.0,98,0.00,,---,0.00,VWS V14.01,2013-01-11 06:40:00,
2013-01-11 00:45:00,35.6,35.1,28.76,ESE,112,0.0,0.0,98,0.00,,---,0.00,VWS V14.01,2013-01-11 06:45:00,
2013-01-11 00:50:00,35.6,35.1,28.73,ESE,112,0.0,0.0,98,0.00,,---,0.00,VWS V14.01,2013-01-11 06:50:00,
2013-01-11 00:55:00,35.6,35.1,28.73,ESE,112,0.0,0.0,98,0.00,,---,0.00,VWS V14.01,2013-01-11 06:55:00,
2013-01-11 01:00:00,35.4,34.9,28.73,ESE,112,0.0,0.0,98,0.00,,---,0.00,VWS V14.01,2013-01-11 07:00:00,
2013-01-11 01:05:00,35.4,34.9,28.73,ESE,112,0.0,0.0,98,0.00,,---,0.00,VWS V14.01,2013-01-11 07:05:00,
2013-01-11 01:10:00,35.2,34.7,28.73,ESE,112,0.0,0.0,98,0.00,,---,0.00,VWS V14.01,2013-01-11 07:10:00,
2013-01-11 01:15:00,35.2,34.7,28.73,ESE,112,0.0,0.0,98,0.00,,---,0.00,VWS V14.01,2013-01-11 07:15:00,
2013-01-11 01:20:00,35.2,34.7,28.73,ESE,112,0.0,0.0,98,0.00,,---,0.00,VWS V14.01,2013-01-11 07:20:00,
2013-01-11 01:25:00,35.2,34.7,28.73,ESE,112,0.0,0.0,98,0.00,,---,0.00,VWS V14.01,2013-01-11 07:25:00,
2013-01-11 01:30:00,35.2,34.7,28.73,ESE,112,0.0,0.0,98,0.00,,---,0.00,VWS V14.01,2013-01-11 07:30:00,
2013-01-11 01:35:00,35.2,34.7,28.73,ESE,112,0.0,0.0,98,0.00,,---,0.00,VWS V14.01,2013-01-11 07:35:00,
2013-01-11 01:40:00,35.2,34.7,28.73,ESE,112,0.0,0.0,98,0.00,,---,0.00,VWS V14.01,2013-01-11 07:40:00,
2013-01-11 01:45:00,35.2,34.7,28.73,ESE,112,0.0,0.0,98,0.00,,---,0.00,VWS V14.01,2013-01-11 07:45:00,
2013-01-11 01:50:00,35.2,34.7,28.73,ESE,112,0.0,0.0,98,0.00,,---,0.00,VWS V14.01,2013-01-11 07:50:00,
2013-01-11 01:55:00,35.2,34.7,28.73,ESE,112,0.0,0.0,98,0.00,,---,0.00,VWS V14.01,2013-01-11 07:55:00,
2013-01-11 02:00:00,35.2,34.7,28.73,ESE,112,0.0,0.0,98,0.00,,---,0.00,VWS V14.01,2013-01-11 08:00:00,
2013-01-11 02:05:00,35.1,34.5,28.73,ESE,112,0.0,0.0,98,0.00,,---,0.00,VWS V14.01,2013-01-11 08:05:00,
2013-01-11 02:10:00,35.1,34.5,28.73,ESE,112,0.0,0.0,98,0.00,,---,0.00,VWS V14.01,2013-01-11 08:10:00,
2013-01-11 02:15:00,35.1,34.5,28.73,ESE,112,0.0,0.0,98,0.00,,---,0.00,VWS V14.01,2013-01-11 08:15:00,
2013-01-11 02:20:00,35.1,34.5,28.73,ESE,112,0.0,0.0,98,0.00,,---,0.00,VWS V14.01,2013-01-11 08:20:00,
2013-01-11 02:25:00,35.1,34.5,28.73,ESE,112,0.0,0.0,98,0.00,,---,0.00,VWS V14.01,2013-01-11 08:25:00,
2013-01-11 02:30:00,35.2,34.7,28.73,ESE,112,0.0,0.0,98,0.00,,---,0.00,VWS V14.01,2013-01-11 08:30:00,
2013-01-11 02:35:00,35.2,34.7,28.73,ESE,112,0.0,0.0,98,0.00,,---,0.00,VWS V14.01,2013-01-11 08:35:00,
2013-01-11 02:40:00,35.2,34.7,28.73,ESE,112,0.0,0.0,98,0.00,,---,0.00,VWS V14.01,2013-01-11 08:40:00,
2013-01-11 02:45:00,35.4,34.9,28.73,ESE,112,0.0,0.0,98,0.00,,---,0.00,VWS V14.01,2013-01-11 08:45:00,
2013-01-11 02:50:00,35.4,34.9,28.73,ESE,112,0.0,0.0,98,0.00,,---,0.00,VWS V14.01,2013-01-11 08:50:00,
2013-01-11 02:55:00,35.2,34.7,28.73,ESE,112,0.0,0.0,98,0.00,,---,0.00,VWS V14.01,2013-01-11 08:55:00,
2013-01-11 03:00:00,35.4,34.9,28.73,ESE,112,0.0,0.0,98,0.00,,---,0.00,VWS V14.01,2013-01-11 09:00:00,
2013-01-11 03:05:00,35.4,34.9,28.73,ESE,112,0.0,0.0,98,0.00,,---,0.00,VWS V14.01,2013-01-11 09:05:00,
2013-01-11 03:10:00,35.4,34.9,28.73,ESE,112,0.0,0.0,98,0.00,,---,0.00,VWS V14.01,2013-01-11 09:10:00,
2013-01-11 03:15:00,35.4,34.9,28.73,ESE,112,0.0,0.0,98,0.00,,---,0.00,VWS V14.01,2013-01-11 09:15:00,
2013-01-11 03:20:00,35.4,34.9,28.73,ESE,112,0.0,0.0,98,0.00,,---,0.00,VWS V14.01,2013-01-11 09:20:00,
2013-01-11 03:25:00,35.4,34.9,28.73,ESE,112,1.3,1.3,98,0.00,,---,0.00,VWS V14.01,2013-01-11 09:25:00,
2013-01-11 03:30:00,35.4,34.9,28.70,ESE,112,0.0,0.0,98,0.00,,---,0.00,VWS V14.01,2013-01-11 09:30:00,
2013-01-11 03:35:00,35.4,34.9,28.70,ESE,112,0.0,0.0,98,0.00,,---,0.00,VWS V14.01,2013-01-11 09:35:00,
2013-01-11 03:40:00,35.4,34.9,28.70,ESE,112,0.0,0.0,98,0.00,,---,0.00,VWS V14.01,2013-01-11 09:40:00,
2013-01-11 03:45:00,35.4,34.9,28.70,ESE,112,0.0,0.0,98,0.00,,---,0.00,VWS V14.01,2013-01-11 09:45:00,
2013-01-11 03:50:00,35.2,34.7,28.70,ESE,112,0.0,0.0,98,0.00,,---,0.00,VWS V14.01,2013-01-11 09:50:00,
2013-01-11 03:55:00,35.2,34.7,28.70,ESE,112,0.0,0.0,98,0.00,,---,0.00,VWS V14.01,2013-01-11 09:55:00,
2013-01-11 04:00:00,35.2,34.7,28.70,ESE,112,0.0,0.0,98,0.00,,---,0.00,VWS V14.01,2013-01-11 10:00:00,
2013-01-11 04:05:00,35.1,34.5,28.70,ESE,112,0.0,0.0,98,0.00,,---,0.00,VWS V14.01,2013-01-11 10:05:00,
2013-01-11 04:10:00,35.2,34.7,28.70,ESE,112,0.0,0.0,98,0.00,,---,0.00,VWS V14.01,2013-01-11 10:10:00,
2013-01-11 04:15:00,35.2,34.7,28.67,ESE,112,1.6,1.6,98,0.00,,---,0.00,VWS V14.01,2013-01-11 10:15:00,
2013-01-11 04:20:00,35.4,34.9,28.67,ESE,112,1.1,1.3,98,0.00,,---,0.00,VWS V14.01,2013-01-11 10:20:00,
2013-01-11 04:25:00,35.6,35.1,28.67,ESE,112,1.3,1.3,98,0.00,,---,0.00,VWS V14.01,2013-01-11 10:25:00,
2013-01-11 04:30:00,35.6,35.1,28.67,ESE,112,0.0,0.0,98,0.00,,---,0.00,VWS V14.01,2013-01-11 10:30:00,
2013-01-11 04:35:00,35.6,35.1,28.67,ESE,112,0.0,0.0,98,0.00,,---,0.00,VWS V14.01,2013-01-11 10:35:00,
2013-01-11 04:41:00,35.8,35.3,28.67,ESE,112,0.0,0.9,98,0.00,,---,0.00,VWS V14.01,2013-01-11 10:41:00,
2013-01-11 04:46:00,36.0,35.5,28.64,ESE,112,0.0,0.0,98,0.00,,---,0.00,VWS V14.01,2013-01-11 10:46:00,
2013-01-11 04:51:00,36.1,35.6,28.64,ESE,112,0.0,0.0,98,0.00,,---,0.00,VWS V14.01,2013-01-11 10:51:00,
2013-01-11 04:56:00,36.3,35.8,28.64,ESE,112,0.0,1.6,98,0.00,,---,0.00,VWS V14.01,2013-01-11 10:56:00,
2013-01-11 05:01:00,36.5,36.0,28.64,ESE,112,0.0,1.3,98,0.00,,---,0.00,VWS V14.01,2013-01-11 11:01:00,
2013-01-11 05:06:00,36.7,36.2,28.64,ESE,112,0.0,2.5,98,0.00,,---,0.00,VWS V14.01,2013-01-11 11:06:00,
2013-01-11 05:11:00,36.7,36.2,28.64,ESE,112,1.1,2.0,98,0.00,,---,0.00,VWS V14.01,2013-01-11 11:11:00,
2013-01-11 05:16:00,36.7,36.2,28.64,ESE,112,0.0,2.2,98,0.00,,---,0.00,VWS V14.01,2013-01-11 11:16:00,
2013-01-11 05:21:00,36.7,36.2,28.64,ESE,112,0.0,1.1,98,0.00,,---,0.00,VWS V14.01,2013-01-11 11:21:00,
2013-01-11 05:26:00,36.7,36.2,28.64,ESE,112,0.0,0.0,98,0.00,,---,0.00,VWS V14.01,2013-01-11 11:26:00,
2013-01-11 05:31:00,36.7,36.2,28.67,ESE,112,1.6,1.6,98,0.00,,---,0.00,VWS V14.01,2013-01-11 11:31:00,
2013-01-11 05:36:00,36.7,36.2,28.67,ESE,112,0.0,1.1,98,0.00,,---,0.00,VWS V14.01,2013-01-11 11:36:00,
2013-01-11 05:41:00,36.5,36.0,28.67,ESE,112,0.0,2.9,98,0.00,,---,0.00,VWS V14.01,2013-01-11 11:41:00,
2013-01-11 05:46:00,36.5,36.0,28.64,ESE,112,1.1,1.6,98,0.00,,---,0.00,VWS V14.01,2013-01-11 11:46:00,
2013-01-11 05:51:00,36.5,36.0,28.64,ESE,112,0.0,0.0,98,0.00,,---,0.00,VWS V14.01,2013-01-11 11:51:00,
2013-01-11 05:56:00,36.3,35.8,28.64,ESE,112,0.0,1.6,98,0.00,,---,0.00,VWS V14.01,2013-01-11 11:56:00,
2013-01-11 06:01:00,36.5,36.0,28.67,ESE,112,0.0,0.0,98,0.00,,---,0.00,VWS V14.01,2013-01-11 12:01:00,
2013-01-11 06:06:00,36.5,36.0,28.67,ESE,112,0.0,0.0,98,0.00,,---,0.00,VWS V14.01,2013-01-11 12:06:00,
2013-01-11 06:11:00,36.7,36.2,28.67,ESE,112,0.0,0.0,98,0.00,,---,0.00,VWS V14.01,2013-01-11 12:11:00,
2013-01-11 06:16:00,36.7,36.2,28.67,ESE,112,0.0,0.0,98,0.00,,---,0.00,VWS V14.01,2013-01-11 12:16:00,
2013-01-11 06:21:00,36.5,36.0,28.67,ESE,112,0.0,0.0,98,0.00,,---,0.00,VWS V14.01,2013-01-11 12:21:00,
2013-01-11 06:26:00,36.7,36.2,28.67,ESE,112,0.0,0.0,98,0.00,,---,0.00,VWS V14.01,2013-01-11 12:26:00,
2013-01-11 06:31:00,36.7,36.2,28.67,ESE,112,0.0,0.0,98,0.00,,---,0.00,VWS V14.01,2013-01-11 12:31:00,
2013-01-11 06:36:00,36.9,36.3,28.67,ESE,112,0.0,0.0,98,0.00,,---,0.00,VWS V14.01,2013-01-11 12:36:00,
2013-01-11 06:41:00,36.9,36.3,28.67,ESE,112,0.0,0.0,98,0.00,,---,0.00,VWS V14.01,2013-01-11 12:41:00,
2013-01-11 06:46:00,36.9,36.3,28.67,ESE,112,1.3,2.7,98,0.00,,---,0.00,VWS V14.01,2013-01-11 12:46:00,
2013-01-11 06:52:00,37.0,36.5,28.67,ESE,112,0.0,0.9,98,0.00,,---,0.00,VWS V14.01,2013-01-11 12:52:00,
2013-01-11 06:57:00,37.0,36.5,28.67,ESE,112,0.0,0.0,98,0.00,,---,0.00,VWS V14.01,2013-01-11 12:57:00,
2013-01-11 07:02:00,37.2,36.7,28.67,ESE,112,0.0,0.0,98,0.00,,---,0.00,VWS V14.01,2013-01-11 13:02:00,
2013-01-11 07:07:00,37.0,36.5,28.67,ESE,112,0.0,0.0,98,0.00,,---,0.00,VWS V14.01,2013-01-11 13:07:00,
2013-01-11 07:12:00,37.0,36.5,28.67,ESE,112,0.0,0.0,98,0.00,,---,0.00,VWS V14.01,2013-01-11 13:12:00,
2013-01-11 07:17:00,37.2,36.7,28.64,ESE,112,0.0,0.0,98,0.00,,---,0.00,VWS V14.01,2013-01-11 13:17:00,
2013-01-11 07:22:00,37.4,36.9,28.64,ESE,112,0.0,0.0,98,0.00,,---,0.00,VWS V14.01,2013-01-11 13:22:00,
2013-01-11 07:27:00,37.4,36.9,28.64,ESE,112,0.0,0.0,98,0.00,,---,0.00,VWS V14.01,2013-01-11 13:27:00,
2013-01-11 07:32:00,37.6,37.1,28.64,ESE,112,0.0,2.0,98,0.00,,---,0.00,VWS V14.01,2013-01-11 13:32:00,
2013-01-11 07:37:00,37.6,37.1,28.64,ESE,112,0.0,0.0,98,0.00,,---,0.00,VWS V14.01,2013-01-11 13:37:00,
2013-01-11 07:42:00,37.6,37.1,28.64,ESE,112,0.0,0.0,98,0.00,,---,0.00,VWS V14.01,2013-01-11 13:42:00,
2013-01-11 07:47:00,37.8,37.2,28.64,ESE,112,0.0,0.0,98,0.00,,---,0.00,VWS V14.01,2013-01-11 13:47:00,
2013-01-11 07:52:00,37.9,37.4,28.64,ESE,112,0.0,0.0,98,0.00,,---,0.00,VWS V14.01,2013-01-11 13:52:00,
2013-01-11 07:57:00,37.9,37.4,28.64,ESE,112,0.0,0.0,98,0.00,,---,0.00,VWS V14.01,2013-01-11 13:57:00,
2013-01-11 08:02:00,37.9,37.4,28.64,ESE,112,0.0,0.0,98,0.00,,---,0.00,VWS V14.01,2013-01-11 14:02:00,
2013-01-11 08:07:00,38.1,37.6,28.64,ESE,112,0.0,0.0,98,0.00,,---,0.00,VWS V14.01,2013-01-11 14:07:00,
2013-01-11 08:12:00,38.3,37.8,28.64,ESE,112,0.0,0.0,98,0.00,,---,0.00,VWS V14.01,2013-01-11 14:12:00,
2013-01-11 08:17:00,38.3,37.8,28.64,ESE,112,0.0,0.0,98,0.00,,---,0.00,VWS V14.01,2013-01-11 14:17:00,
2013-01-11 08:22:00,38.5,38.0,28.64,ESE,112,1.1,1.1,98,0.00,,---,0.00,VWS V14.01,2013-01-11 14:22:00,
2013-01-11 08:27:00,38.8,38.3,28.64,ESE,112,0.0,2.5,98,0.00,,---,0.00,VWS V14.01,2013-01-11 14:27:00,
2013-01-11 08:32:00,39.0,38.5,28.64,ESE,112,0.0,0.0,98,0.00,,---,0.00,VWS V14.01,2013-01-11 14:32:00,
2013-01-11 08:37:00,39.0,38.5,28.64,ESE,112,2.2,2.2,98,0.00,,---,0.00,VWS V14.01,2013-01-11 14:37:00,
2013-01-11 08:42:00,39.4,38.9,28.64,ESE,112,2.5,2.5,98,0.00,,---,0.00,VWS V14.01,2013-01-11 14:42:00,
2013-01-11 08:47:00,39.7,39.2,28.61,ESE,112,0.0,1.3,98,0.00,,---,0.00,VWS V14.01,2013-01-11 14:47:00,
2013-01-11 08:52:00,40.1,39.6,28.61,ESE,112,0.0,1.6,98,0.00,,---,0.00,VWS V14.01,2013-01-11 14:52:00,
2013-01-11 08:57:00,40.5,39.9,28.61,East,90,2.5,2.5,98,0.00,,---,0.00,VWS V14.01,2013-01-11 14:57:00,
2013-01-11 09:02:00,40.6,40.1,28.61,East,90,0.0,0.0,98,0.00,,---,0.00,VWS V14.01,2013-01-11 15:02:00,
2013-01-11 09:07:00,40.6,40.1,28.61,East,90,1.6,2.5,98,0.00,,---,0.00,VWS V14.01,2013-01-11 15:07:00,
2013-01-11 09:12:00,40.6,40.1,28.61,East,90,0.0,0.0,98,0.00,,---,0.00,VWS V14.01,2013-01-11 15:12:00,
2013-01-11 09:17:00,40.8,40.3,28.64,East,90,0.0,0.0,98,0.00,,---,0.00,VWS V14.01,2013-01-11 15:17:00,
2013-01-11 09:22:00,41.0,40.5,28.64,ESE,112,1.1,1.1,98,0.00,,---,0.00,VWS V14.01,2013-01-11 15:22:00,
2013-01-11 09:27:00,41.0,40.5,28.64,ESE,112,1.1,1.1,98,0.00,,---,0.00,VWS V14.01,2013-01-11 15:27:00,
2013-01-11 09:32:00,41.2,40.7,28.61,ESE,112,0.0,1.1,98,0.00,,---,0.00,VWS V14.01,2013-01-11 15:32:00,
2013-01-11 09:37:00,41.5,41.0,28.61,ESE,112,0.0,0.0,98,0.00,,---,0.00,VWS V14.01,2013-01-11 15:37:00,
2013-01-11 09:42:00,41.9,41.4,28.61,East,90,2.7,2.7,98,0.00,,---,0.00,VWS V14.01,2013-01-11 15:42:00,
2013-01-11 09:47:00,42.3,41.7,28.61,East,90,0.0,0.0,98,0.00,,---,0.00,VWS V14.01,2013-01-11 15:47:00,
2013-01-11 09:52:00,42.4,41.9,28.61,East,90,1.6,1.6,98,0.00,,---,0.00,VWS V14.01,2013-01-11 15:52:00,
2013-01-11 09:57:00,42.8,42.3,28.61,ESE,112,2.7,2.7,98,0.00,,---,0.00,VWS V14.01,2013-01-11 15:57:00,
2013-01-11 10:02:00,43.2,42.6,28.61,ESE,112,1.3,2.0,98,0.00,,---,0.00,VWS V14.01,2013-01-11 16:02:00,
2013-01-11 10:07:00,43.3,42.8,28.61,ESE,112,1.1,2.9,98,0.00,,---,0.00,VWS V14.01,2013-01-11 16:07:00,
2013-01-11 10:12:00,43.9,43.3,28.61,ESE,112,0.0,1.6,98,0.00,,---,0.00,VWS V14.01,2013-01-11 16:12:00,
2013-01-11 10:17:00,44.1,43.5,28.61,ESE,112,0.0,1.1,98,0.00,,---,0.00,VWS V14.01,2013-01-11 16:17:00,
2013-01-11 10:22:00,44.1,43.5,28.61,ESE,112,3.1,3.4,98,0.00,,---,0.00,VWS V14.01,2013-01-11 16:22:00,
2013-01-11 10:27:00,44.1,43.5,28.61,ESE,112,0.0,0.0,98,0.00,,---,0.00,VWS V14.01,2013-01-11 16:27:00,
2013-01-11 10:32:00,44.1,43.5,28.61,ESE,112,2.9,2.9,98,0.00,,---,0.00,VWS V14.01,2013-01-11 16:32:00,
2013-01-11 10:37:00,44.1,43.5,28.61,ESE,112,0.0,0.0,98,0.00,,---,0.00,VWS V14.01,2013-01-11 16:37:00,
2013-01-11 10:42:00,44.1,43.5,28.61,ESE,112,0.0,1.6,98,0.00,,---,0.00,VWS V14.01,2013-01-11 16:42:00,
2013-01-11 10:47:00,44.2,43.7,28.58,ESE,112,0.0,2.7,98,0.00,,---,0.00,VWS V14.01,2013-01-11 16:47:00,
2013-01-11 10:52:00,44.1,43.5,28.58,ESE,112,0.0,1.3,98,0.04,,---,0.04,VWS V14.01,2013-01-11 16:52:00,
2013-01-11 10:57:00,44.2,43.7,28.58,ESE,112,2.5,2.5,98,0.04,,---,0.04,VWS V14.01,2013-01-11 16:57:00,
2013-01-11 11:02:00,44.2,43.7,28.58,ESE,112,0.0,0.0,98,0.04,,---,0.04,VWS V14.01,2013-01-11 17:02:00,
2013-01-11 11:07:00,44.4,43.9,28.58,ESE,112,0.0,1.3,98,0.04,,---,0.04,VWS V14.01,2013-01-11 17:07:00,
2013-01-11 11:12:00,44.4,43.9,28.58,ESE,112,0.0,0.0,98,0.04,,---,0.04,VWS V14.01,2013-01-11 17:12:00,
2013-01-11 11:17:00,44.4,43.9,28.61,ESE,112,2.2,2.2,98,0.04,,---,0.04,VWS V14.01,2013-01-11 17:17:00,
2013-01-11 11:22:00,44.6,44.1,28.61,ESE,112,0.0,0.0,98,0.04,,---,0.04,VWS V14.01,2013-01-11 17:22:00,
2013-01-11 11:27:00,44.6,44.1,28.61,ESE,112,0.9,0.9,98,0.04,,---,0.04,VWS V14.01,2013-01-11 17:27:00,
2013-01-11 11:32:00,45.0,44.4,28.58,ESE,112,2.5,2.5,98,0.04,,---,0.04,VWS V14.01,2013-01-11 17:32:00,
2013-01-11 11:37:00,45.1,44.6,28.58,ESE,112,0.9,0.9,98,0.04,,---,0.04,VWS V14.01,2013-01-11 17:37:00,
2013-01-11 11:42:00,45.0,44.4,28.58,ESE,112,0.0,0.9,98,0.04,,---,0.04,VWS V14.01,2013-01-11 17:42:00,
2013-01-11 11:47:00,45.0,44.4,28.58,East,90,1.1,1.1,98,0.04,,---,0.04,VWS V14.01,2013-01-11 17:47:00,
2013-01-11 11:52:00,45.0,44.4,28.58,East,90,0.0,0.0,98,0.00,,---,0.04,VWS V14.01,2013-01-11 17:52:00,
2013-01-11 11:57:00,45.0,44.4,28.58,East,90,0.0,2.0,98,0.00,,---,0.04,VWS V14.01,2013-01-11 17:57:00,
2013-01-11 12:02:00,45.5,45.0,28.55,East,90,2.0,2.2,98,0.00,,---,0.04,VWS V14.01,2013-01-11 18:02:00,
2013-01-11 12:07:00,45.5,45.0,28.55,East,90,0.0,2.5,98,0.00,,---,0.04,VWS V14.01,2013-01-11 18:07:00,
2013-01-11 12:12:00,45.5,45.0,28.55,NW,315,2.2,2.2,98,0.00,,---,0.04,VWS V14.01,2013-01-11 18:12:00,
2013-01-11 12:18:00,45.5,45.0,28.52,NNW,338,0.0,2.0,98,0.00,,---,0.04,VWS V14.01,2013-01-11 18:18:00,
2013-01-11 12:23:00,45.7,45.2,28.52,NNW,338,3.1,3.1,98,0.00,,---,0.04,VWS V14.01,2013-01-11 18:23:00,
2013-01-11 12:28:00,45.9,45.3,28.52,NNW,338,3.1,3.1,98,0.00,,---,0.04,VWS V14.01,2013-01-11 18:28:00,
2013-01-11 12:33:00,46.0,45.5,28.52,NNW,338,0.0,0.0,98,0.00,,---,0.04,VWS V14.01,2013-01-11 18:33:00,
2013-01-11 12:38:00,46.0,45.5,28.52,NNW,338,0.0,0.0,98,0.00,,---,0.04,VWS V14.01,2013-01-11 18:38:00,
2013-01-11 12:43:00,46.0,45.5,28.52,NNW,338,0.0,0.0,98,0.00,,---,0.04,VWS V14.01,2013-01-11 18:43:00,
2013-01-11 12:48:00,45.9,45.3,28.52,NNW,338,0.0,0.0,98,0.00,,---,0.04,VWS V14.01,2013-01-11 18:48:00,
2013-01-11 12:53:00,45.7,45.2,28.52,NNW,338,0.0,0.0,98,0.00,,---,0.04,VWS V14.01,2013-01-11 18:53:00,
2013-01-11 12:58:00,45.7,45.2,28.52,NNW,338,0.0,2.2,98,0.00,,---,0.04,VWS V14.01,2013-01-11 18:58:00,
2013-01-11 13:03:00,45.9,45.3,28.50,NNW,338,0.0,0.0,98,0.00,,---,0.04,VWS V14.01,2013-01-11 19:03:00,
2013-01-11 13:08:00,45.9,45.3,28.50,NNW,338,0.0,0.0,98,0.00,,---,0.04,VWS V14.01,2013-01-11 19:08:00,
2013-01-11 13:13:00,45.7,45.2,28.50,NNW,338,0.0,0.0,98,0.00,,---,0.04,VWS V14.01,2013-01-11 19:13:00,
2013-01-11 13:18:00,45.5,45.0,28.52,NNW,338,0.0,1.1,98,0.00,,---,0.04,VWS V14.01,2013-01-11 19:18:00,
2013-01-11 13:24:00,45.5,45.0,28.52,NNW,338,0.0,0.0,98,0.00,,---,0.04,VWS V14.01,2013-01-11 19:24:00,
2013-01-11 13:29:00,45.5,45.0,28.52,NNW,338,0.0,0.0,98,0.00,,---,0.04,VWS V14.01,2013-01-11 19:29:00,
2013-01-11 13:34:00,45.5,45.0,28.52,NNW,338,0.0,0.0,98,0.00,,---,0.04,VWS V14.01,2013-01-11 19:34:00,
2013-01-11 13:39:00,45.5,45.0,28.52,WSW,248,0.0,4.9,98,0.00,,---,0.04,VWS V14.01,2013-01-11 19:39:00,
2013-01-11 13:44:00,45.5,45.0,28.52,NNW,338,0.0,0.0,98,0.00,,---,0.04,VWS V14.01,2013-01-11 19:44:00,
2013-01-11 13:49:00,45.7,45.2,28.52,East,90,0.0,0.0,98,0.00,,---,0.04,VWS V14.01,2013-01-11 19:49:00,
2013-01-11 13:54:00,45.9,45.3,28.52,East,90,0.0,0.0,98,0.00,,---,0.04,VWS V14.01,2013-01-11 19:54:00,
2013-01-11 13:59:00,45.7,45.2,28.52,East,90,0.0,0.0,98,0.00,,---,0.04,VWS V14.01,2013-01-11 19:59:00,
2013-01-11 14:04:00,45.9,45.3,28.50,East,90,0.0,0.0,98,0.00,,---,0.04,VWS V14.01,2013-01-11 20:04:00,
2013-01-11 14:09:00,45.9,45.3,28.50,East,90,0.0,0.0,98,0.00,,---,0.04,VWS V14.01,2013-01-11 20:09:00,
2013-01-11 14:14:00,46.0,45.5,28.50,East,90,0.0,0.0,98,0.00,,---,0.04,VWS V14.01,2013-01-11 20:14:00,
2013-01-11 14:19:00,45.9,45.3,28.50,East,90,0.0,0.0,98,0.00,,---,0.04,VWS V14.01,2013-01-11 20:19:00,
2013-01-11 14:24:00,46.0,45.5,28.50,East,90,0.0,0.0,98,0.00,,---,0.04,VWS V14.01,2013-01-11 20:24:00,
2013-01-11 14:29:00,46.0,45.5,28.50,East,90,0.0,0.0,98,0.00,,---,0.04,VWS V14.01,2013-01-11 20:29:00,
2013-01-11 14:34:00,46.0,45.5,28.50,ENE,68,0.0,0.0,98,0.00,,---,0.04,VWS V14.01,2013-01-11 20:34:00,
2013-01-11 14:39:00,46.2,45.7,28.50,East,90,0.0,0.0,98,0.00,,---,0.04,VWS V14.01,2013-01-11 20:39:00,
2013-01-11 14:44:00,46.4,45.9,28.50,ENE,68,0.0,0.0,98,0.00,,---,0.04,VWS V14.01,2013-01-11 20:44:00,
2013-01-11 14:49:00,46.6,46.0,28.50,ENE,68,0.0,0.0,98,0.00,,---,0.04,VWS V14.01,2013-01-11 20:49:00,
2013-01-11 14:54:00,46.8,46.2,28.50,East,90,0.0,0.0,98,0.00,,---,0.04,VWS V14.01,2013-01-11 20:54:00,
2013-01-11 14:59:00,46.8,46.2,28.50,ENE,68,0.0,0.0,98,0.00,,---,0.04,VWS V14.01,2013-01-11 20:59:00,
2013-01-11 15:04:00,47.1,46.6,28.50,East,90,0.0,0.0,98,0.00,,---,0.04,VWS V14.01,2013-01-11 21:04:00,
2013-01-11 15:09:00,47.1,46.6,28.50,East,90,0.0,0.0,98,0.00,,---,0.04,VWS V14.01,2013-01-11 21:09:00,
2013-01-11 15:14:00,47.3,46.8,28.50,ENE,68,0.0,0.0,98,0.00,,---,0.04,VWS V14.01,2013-01-11 21:14:00,
2013-01-11 15:19:00,47.7,47.1,28.50,NNW,338,0.0,0.0,98,0.00,,---,0.04,VWS V14.01,2013-01-11 21:19:00,
2013-01-11 15:24:00,48.0,47.5,28.50,NNW,338,0.0,0.0,98,0.00,,---,0.04,VWS V14.01,2013-01-11 21:24:00,
2013-01-11 15:29:00,48.0,47.5,28.50,ENE,68,0.0,0.0,98,0.00,,---,0.04,VWS V14.01,2013-01-11 21:29:00,
2013-01-11 15:34:00,47.8,47.0,28.52,ENE,68,0.0,0.0,97,0.00,,---,0.04,VWS V14.01,2013-01-11 21:34:00,
2013-01-11 15:39:00,47.8,47.0,28.52,East,90,0.0,0.0,97,0.00,,---,0.04,VWS V14.01,2013-01-11 21:39:00,
2013-01-11 15:44:00,48.0,46.9,28.50,East,90,0.0,0.0,96,0.00,,---,0.04,VWS V14.01,2013-01-11 21:44:00,
2013-01-11 15:50:00,47.8,46.8,28.50,ENE,68,0.0,0.0,96,0.00,,---,0.04,VWS V14.01,2013-01-11 21:50:00,
2013-01-11 15:55:00,47.8,46.8,28.50,ENE,68,0.0,0.0,96,0.00,,---,0.04,VWS V14.01,2013-01-11 21:55:00,
2013-01-11 16:00:00,47.7,46.3,28.50,East,90,0.0,0.0,95,0.00,,---,0.04,VWS V14.01,2013-01-11 22:00:00,
2013-01-11 16:05:00,47.7,46.3,28.50,East,90,0.0,0.0,95,0.00,,---,0.04,VWS V14.01,2013-01-11 22:05:00,
2013-01-11 16:10:00,47.7,46.3,28.50,East,90,0.0,0.0,95,0.00,,---,0.04,VWS V14.01,2013-01-11 22:10:00,
2013-01-11 16:15:00,47.7,46.3,28.50,ENE,68,0.0,0.0,95,0.00,,---,0.04,VWS V14.01,2013-01-11 22:15:00,
2013-01-11 16:20:00,47.3,45.7,28.50,ENE,68,0.0,0.0,94,0.00,,---,0.04,VWS V14.01,2013-01-11 22:20:00,
2013-01-11 16:25:00,47.5,45.8,28.50,ENE,68,0.0,0.0,94,0.00,,---,0.04,VWS V14.01,2013-01-11 22:25:00,
2013-01-11 16:30:00,47.3,45.7,28.52,East,90,0.0,0.0,94,0.00,,---,0.04,VWS V14.01,2013-01-11 22:30:00,
2013-01-11 16:35:00,46.9,45.0,28.52,East,90,0.0,0.0,93,0.00,,---,0.04,VWS V14.01,2013-01-11 22:35:00,
2013-01-11 16:40:00,46.8,44.8,28.52,East,90,0.0,0.0,93,0.00,,---,0.04,VWS V14.01,2013-01-11 22:40:00,
2013-01-11 16:45:00,46.8,44.8,28.50,East,90,0.0,0.0,93,0.00,,---,0.04,VWS V14.01,2013-01-11 22:45:00,
2013-01-11 16:50:00,46.8,44.8,28.50,ENE,68,0.0,0.0,93,0.00,,---,0.04,VWS V14.01,2013-01-11 22:50:00,
2013-01-11 16:55:00,46.6,44.7,28.50,ENE,68,0.0,0.0,93,0.00,,---,0.04,VWS V14.01,2013-01-11 22:55:00,
2013-01-11 17:00:00,46.6,44.7,28.50,ENE,68,0.0,0.0,93,0.00,,---,0.04,VWS V14.01,2013-01-11 23:00:00,
2013-01-11 17:06:00,46.0,44.1,28.50,ENE,68,0.0,0.0,93,0.00,,---,0.04,VWS V14.01,2013-01-11 23:06:00,
2013-01-11 17:11:00,45.5,43.3,28.50,ENE,68,0.0,0.0,92,0.00,,---,0.04,VWS V14.01,2013-01-11 23:11:00,
2013-01-11 17:16:00,45.3,43.4,28.52,ENE,68,0.0,0.0,93,0.00,,---,0.04,VWS V14.01,2013-01-11 23:16:00,
2013-01-11 17:21:00,45.1,43.2,28.52,ENE,68,0.0,0.0,93,0.00,,---,0.04,VWS V14.01,2013-01-11 23:21:00,
2013-01-11 17:26:00,44.8,42.9,28.52,ENE,68,0.0,0.0,93,0.00,,---,0.04,VWS V14.01,2013-01-11 23:26:00,
2013-01-11 17:31:00,45.1,43.8,28.50,ENE,68,0.0,0.0,95,0.00,,---,0.04,VWS V14.01,2013-01-11 23:31:00,
2013-01-11 17:36:00,45.5,44.2,28.50,ENE,68,0.0,0.0,95,0.00,,---,0.04,VWS V14.01,2013-01-11 23:36:00,
2013-01-11 17:41:00,45.9,44.8,28.50,ENE,68,0.0,0.0,96,0.00,,---,0.04,VWS V14.01,2013-01-11 23:41:00,
2013-01-11 17:46:00,45.5,44.2,28.50,ENE,68,0.0,0.0,95,0.00,,---,0.04,VWS V14.01,2013-01-11 23:46:00,
2013-01-11 17:52:00,45.3,43.7,28.50,ENE,68,0.0,0.0,94,0.00,,---,0.04,VWS V14.01,2013-01-11 23:52:00,
2013-01-11 17:57:00,45.3,43.7,28.50,East,90,0.0,0.0,94,0.00,,---,0.04,VWS V14.01,2013-01-11 23:57:00,
2013-01-11 18:02:00,45.7,44.3,28.50,East,90,0.0,0.0,95,0.00,,---,0.04,VWS V14.01,2013-01-12 00:02:00,
2013-01-11 18:07:00,46.0,45.0,28.50,ENE,68,0.0,0.0,96,0.00,,---,0.04,VWS V14.01,2013-01-12 00:07:00,
2013-01-11 18:12:00,46.0,44.7,28.50,NW,315,0.0,0.0,95,0.00,,---,0.04,VWS V14.01,2013-01-12 00:12:00,
2013-01-11 18:17:00,46.0,44.7,28.50,NNW,338,0.0,0.0,95,0.00,,---,0.04,VWS V14.01,2013-01-12 00:17:00,
2013-01-11 18:22:00,46.0,44.1,28.50,NNW,338,0.0,0.0,93,0.00,,---,0.04,VWS V14.01,2013-01-12 00:22:00,
2013-01-11 18:27:00,46.2,44.3,28.50,ENE,68,0.0,0.0,93,0.00,,---,0.04,VWS V14.01,2013-01-12 00:27:00,
2013-01-11 18:32:00,46.2,44.3,28.50,NNW,338,0.0,0.0,93,0.00,,---,0.04,VWS V14.01,2013-01-12 00:32:00,
2013-01-11 18:37:00,46.0,43.8,28.50,ENE,68,0.0,0.0,92,0.00,,---,0.04,VWS V14.01,2013-01-12 00:37:00,
2013-01-11 18:42:00,46.0,43.8,28.50,ENE,68,0.0,0.0,92,0.00,,---,0.04,VWS V14.01,2013-01-12 00:42:00,
2013-01-11 18:47:00,45.9,43.7,28.50,ENE,68,0.0,0.0,92,0.00,,---,0.04,VWS V14.01,2013-01-12 00:47:00,
2013-01-11 18:52:00,46.2,44.3,28.50,ENE,68,0.0,0.0,93,0.00,,---,0.04,VWS V14.01,2013-01-12 00:52:00,
2013-01-11 18:57:00,46.4,44.2,28.50,East,90,1.6,1.6,92,0.00,,---,0.04,VWS V14.01,2013-01-12 00:57:00,
2013-01-11 19:02:00,46.2,43.7,28.50,ENE,68,0.0,0.0,91,0.00,,---,0.04,VWS V14.01,2013-01-12 01:02:00,
2013-01-11 19:07:00,46.2,43.7,28.50,East,90,0.0,0.0,91,0.00,,---,0.04,VWS V14.01,2013-01-12 01:07:00,
2013-01-11 19:12:00,46.2,43.7,28.50,ENE,68,0.0,0.0,91,0.00,,---,0.04,VWS V14.01,2013-01-12 01:12:00,
2013-01-11 19:17:00,46.4,43.9,28.50,SSW,202,3.6,3.6,91,0.00,,---,0.04,VWS V14.01,2013-01-12 01:17:00,
2013-01-11 19:22:00,46.6,44.1,28.50,NW,315,0.9,2.0,91,0.00,,---,0.04,VWS V14.01,2013-01-12 01:22:00,
2013-01-11 19:28:00,46.8,44.3,28.50,WNW,292,3.1,3.1,91,0.00,,---,0.04,VWS V14.01,2013-01-12 01:28:00,
2013-01-11 19:33:00,46.6,43.8,28.50,East,90,0.0,3.1,90,0.00,,---,0.04,VWS V14.01,2013-01-12 01:33:00,
2013-01-11 19:38:00,46.8,44.0,28.50,North,0,2.9,2.9,90,0.00,,---,0.04,VWS V14.01,2013-01-12 01:38:00,
2013-01-11 19:43:00,47.3,44.5,28.50,NW,315,0.0,0.0,90,0.00,,---,0.04,VWS V14.01,2013-01-12 01:43:00,
2013-01-11 19:48:00,47.3,44.2,28.50,NE,45,0.0,0.0,89,0.00,,---,0.04,VWS V14.01,2013-01-12 01:48:00,
2013-01-11 19:53:00,47.3,44.2,28.50,NNW,338,0.0,0.0,89,0.00,,---,0.04,VWS V14.01,2013-01-12 01:53:00,
2013-01-11 19:59:00,47.1,43.8,28.50,WNW,292,0.0,0.0,88,0.00,,---,0.04,VWS V14.01,2013-01-12 01:59:00,
2013-01-11 20:04:00,47.3,43.9,28.50,SW,225,0.0,0.0,88,0.00,,---,0.04,VWS V14.01,2013-01-12 02:04:00,
2013-01-11 20:09:00,47.7,44.3,28.50,NNE,22,0.0,0.0,88,0.00,,---,0.04,VWS V14.01,2013-01-12 02:09:00,
2013-01-11 20:14:00,47.7,44.0,28.50,NE,45,4.5,4.5,87,0.00,,---,0.04,VWS V14.01,2013-01-12 02:14:00,
2013-01-11 20:19:00,47.7,43.7,28.50,East,90,0.0,0.0,86,0.00,,---,0.04,VWS V14.01,2013-01-12 02:19:00,
2013-01-11 20:24:00,47.3,43.0,28.50,ENE,68,0.0,0.0,85,0.00,,---,0.04,VWS V14.01,2013-01-12 02:24:00,
2013-01-11 20:29:00,47.3,43.3,28.50,WNW,292,0.0,0.0,86,0.00,,---,0.04,VWS V14.01,2013-01-12 02:29:00,
2013-01-11 20:34:00,47.7,43.7,28.50,East,90,0.0,0.0,86,0.00,,---,0.04,VWS V14.01,2013-01-12 02:34:00,
2013-01-11 20:40:00,47.8,43.9,28.50,East,90,0.0,0.0,86,0.00,,---,0.04,VWS V14.01,2013-01-12 02:40:00,
2013-01-11 20:45:00,48.0,44.0,28.52,East,90,0.0,0.0,86,0.00,,---,0.04,VWS V14.01,2013-01-12 02:45:00,
2013-01-11 20:50:00,47.8,43.6,28.52,West,270,0.0,2.2,85,0.00,,---,0.04,VWS V14.01,2013-01-12 02:50:00,
2013-01-11 20:55:00,47.8,43.6,28.52,SSW,202,0.0,0.0,85,0.00,,---,0.04,VWS V14.01,2013-01-12 02:55:00,
2013-01-11 21:00:00,48.0,43.7,28.52,NNE,22,0.0,0.0,85,0.00,,---,0.04,VWS V14.01,2013-01-12 03:00:00,
2013-01-11 21:05:00,47.8,43.2,28.52,WNW,292,0.0,0.0,84,0.00,,---,0.04,VWS V14.01,2013-01-12 03:05:00,
2013-01-11 21:10:00,48.0,43.4,28.52,East,90,0.0,0.0,84,0.00,,---,0.04,VWS V14.01,2013-01-12 03:10:00,
2013-01-11 21:15:00,47.8,42.9,28.52,East,90,0.0,0.0,83,0.00,,---,0.04,VWS V14.01,2013-01-12 03:15:00,
2013-01-11 21:20:00,48.0,43.4,28.52,SE,135,0.0,2.7,84,0.00,,---,0.04,VWS V14.01,2013-01-12 03:20:00,
2013-01-11 21:25:00,48.2,43.3,28.52,NE,45,1.1,2.9,83,0.00,,---,0.04,VWS V14.01,2013-01-12 03:25:00,
2013-01-11 21:31:00,48.2,43.3,28.50,NE,45,1.6,2.2,83,0.00,,---,0.04,VWS V14.01,2013-01-12 03:31:00,
2013-01-11 21:36:00,48.2,43.0,28.50,East,90,2.5,2.9,82,0.00,,---,0.04,VWS V14.01,2013-01-12 03:36:00,
2013-01-11 21:41:00,48.2,43.0,28.50,NNE,22,2.7,5.6,82,0.00,,---,0.04,VWS V14.01,2013-01-12 03:41:00,
2013-01-11 21:46:00,48.7,43.5,28.50,NNW,338,0.0,0.0,82,0.00,,---,0.04,VWS V14.01,2013-01-12 03:46:00,
2013-01-11 21:51:00,48.6,43.0,28.50,WNW,292,1.3,3.8,81,0.00,,---,0.04,VWS V14.01,2013-01-12 03:51:00,
2013-01-11 21:56:00,48.7,43.2,28.50,East,90,1.3,1.6,81,0.00,,---,0.04,VWS V14.01,2013-01-12 03:56:00,
2013-01-11 22:01:00,48.7,42.9,28.52,ENE,68,0.0,1.3,80,0.00,,---,0.04,VWS V14.01,2013-01-12 04:01:00,
2013-01-11 22:06:00,48.6,42.7,28.52,NW,315,3.1,5.4,80,0.00,,---,0.04,VWS V14.01,2013-01-12 04:06:00,
2013-01-11 22:11:00,48.7,42.5,28.52,West,270,2.5,2.5,79,0.00,,---,0.04,VWS V14.01,2013-01-12 04:11:00,
2013-01-11 22:16:00,48.7,42.5,28.52,ENE,68,2.5,2.5,79,0.00,,---,0.04,VWS V14.01,2013-01-12 04:16:00,
2013-01-11 22:21:00,48.6,42.0,28.52,West,270,0.0,1.1,78,0.00,,---,0.04,VWS V14.01,2013-01-12 04:21:00,
2013-01-11 22:26:00,48.4,42.2,28.52,WSW,248,1.3,3.6,79,0.00,,---,0.04,VWS V14.01,2013-01-12 04:26:00,
2013-01-11 22:31:00,48.7,42.5,28.52,ENE,68,1.3,1.3,79,0.00,,---,0.04,VWS V14.01,2013-01-12 04:31:00,
2013-01-11 22:36:00,48.6,42.3,28.52,NNE,22,3.1,3.1,79,0.00,,---,0.04,VWS V14.01,2013-01-12 04:36:00,
2013-01-11 22:41:00,48.7,42.2,28.52,West,270,1.3,2.5,78,0.00,,---,0.04,VWS V14.01,2013-01-12 04:41:00,
2013-01-11 22:46:00,48.6,42.0,28.52,NE,45,0.0,2.2,78,0.00,,---,0.04,VWS V14.01,2013-01-12 04:46:00,
2013-01-11 22:51:00,48.4,41.8,28.52,WNW,292,4.9,4.9,78,0.00,,---,0.04,VWS V14.01,2013-01-12 04:51:00,
2013-01-11 22:56:00,48.4,42.2,28.52,WNW,292,1.6,3.6,79,0.00,,---,0.04,VWS V14.01,2013-01-12 04:56:00,
2013-01-11 23:00:00,48.2,41.7,28.52,NNW,338,0.0,0.9,78,0.00,,---,0.04,VWS V14.01,2013-01-12 05:00:00,
2013-01-11 23:01:00,48.2,41.7,28.52,WSW,248,1.1,2.0,78,0.00,,---,0.04,VWS V14.01,2013-01-12 05:01:00,
2013-01-11 23:04:00,48.2,42.0,28.52,ESE,112,1.6,1.6,79,0.00,,---,0.04,VWS V14.01,2013-01-12 05:04:00,
2013-01-11 23:09:00,47.8,41.7,28.52,ESE,112,0.0,0.0,79,0.00,,---,0.04,VWS V14.01,2013-01-12 05:09:00,
2013-01-11 23:14:00,47.3,41.1,28.55,WNW,292,0.0,0.0,79,0.00,,---,0.04,VWS V14.01,2013-01-12 05:14:00,
2013-01-11 23:20:00,47.3,41.1,28.55,NW,315,0.0,0.0,79,0.00,,---,0.04,VWS V14.01,2013-01-12 05:20:00,
2013-01-11 23:25:00,47.1,41.3,28.55,West,270,0.0,1.1,80,0.00,,---,0.04,VWS V14.01,2013-01-12 05:25:00,
2013-01-11 23:30:00,47.3,41.5,28.55,ENE,68,0.0,1.3,80,0.00,,---,0.04,VWS V14.01,2013-01-12 05:30:00,
2013-01-11 23:35:00,47.1,41.3,28.55,WNW,292,2.0,2.0,80,0.00,,---,0.04,VWS V14.01,2013-01-12 05:35:00,
2013-01-11 23:40:00,47.1,41.3,28.55,WNW,292,0.0,1.3,80,0.00,,---,0.04,VWS V14.01,2013-01-12 05:40:00,
2013-01-11 23:45:00,46.9,41.1,28.55,NNW,338,1.1,1.6,80,0.00,,---,0.04,VWS V14.01,2013-01-12 05:45:00,
2013-01-11 23:50:00,46.6,40.8,28.55,WNW,292,2.0,2.0,80,0.00,,---,0.04,VWS V14.01,2013-01-12 05:50:00,
2013-01-11 23:55:00,46.6,40.8,28.55,East,90,0.0,1.1,80,0.00,,---,0.04,VWS V14.01,2013-01-12 05:55:00,